Home   Weather   Brattleboro   Past weeks

Flag for USA Past Weather in Brattleboro, Vermont, USA — Yesterday and Last 2 Weeks

Now
54 °F

Overcast.


Feels Like: 54 °F
Forecast: 56 / 74 °F
Wind: 3 mph from Southwest

Location: Keene / Dillant

Current Time: Apr 29, 2017 at 4:03:10 am

Latest Report: Apr 29, 2017 at 2:56 am


Visibility: 10 mi

Pressure: 30.04 "Hg

Humidity: 90%

Dew Point: 51 °F

Location of BrattleboroLocation

Past Weather in Brattleboro — Graph

°F

Brattleboro Temperature Yesterday

Maximum temperature yesterday: 81 °F (at 4:56 pm)
Minimum temperature yesterday: 56 °F (at 10:56 pm)
Average temperature yesterday: 66 °F

High & Low Weather Summary for the Past Weeks

 TemperatureHumidityPressure
High83 °F (Apr 16, 4:56 pm)100% (Apr 14, 6:56 am)30.63 "Hg (Apr 14, 6:56 am)
Low26 °F (Apr 15, 4:56 am)17% (Apr 14, 5:56 pm)29.67 "Hg (Apr 16, 5:56 pm)
Average51 °F73%30.12 "Hg
* Reported Apr 14 2:56 am — Apr 29 2:56 am, Brattleboro, Weather by CustomWeather, © 2017

Note: Actual official high and low records may vary slightly from our data, if they occured in-between our weather recording intervals... More about our weather records

Advertising

Brattleboro Weather History for the Previous 24 Hours

Scroll right to see more
 ConditionsComfort  
Time TempWeatherWind HumidityBarometerVisibility
2:56 am
Sat, Apr 29
54 °FOvercast.3 mph90%30.04 "Hg10 mi
1:56 am54 °FPassing clouds.No wind86%30.06 "Hg10 mi
12:56 am54 °FOvercast.No wind83%30.08 "Hg10 mi
11:56 pm
Fri, Apr 28
56 °FClear.No wind81%30.06 "Hg10 mi
10:56 pm56 °FClear.No wind77%30.06 "Hg10 mi
9:56 pm59 °FClear.3 mph69%30.06 "Hg10 mi
8:56 pm62 °FClear.3 mph60%30.05 "Hg10 mi
7:56 pm67 °FClear.No wind47%30.03 "Hg10 mi
6:56 pm77 °FSunny.3 mph24%30.00 "Hg10 mi
5:56 pm79 °FSunny.9 mph20%29.99 "Hg10 mi
4:56 pm81 °FSunny.12 mph21%29.97 "Hg10 mi
3:56 pm79 °FSunny.12 mph31%29.98 "Hg10 mi
2:56 pm78 °FSunny.12 mph36%29.97 "Hg10 mi
1:56 pm77 °FScattered clouds.9 mph50%30.00 "Hg10 mi
12:56 pm75 °FBroken clouds.9 mph62%29.99 "Hg10 mi
11:56 am71 °FSunny.5 mph68%30.01 "Hg10 mi
11:25 am66 °FScattered clouds.3 mph83%29.97 "Hg10 mi
10:56 am64 °FOvercast.5 mph84%30.02 "Hg10 mi
9:56 am62 °FLow clouds.3 mph90%30.01 "Hg10 mi
8:56 am60 °FLow clouds.3 mph93%30.01 "Hg10 mi
7:56 am60 °FLow clouds.No wind96%30.00 "Hg10 mi
6:56 am59 °FMostly cloudy.No wind96%29.96 "Hg10 mi
6:06 am57 °FLight rain. Low clouds.No wind100%29.93 "Hg8 mi
5:03 am59 °FLight rain. Overcast.No wind94%29.90 "Hg10 mi
4:56 am59 °FLow clouds.No wind93%29.95 "Hg10 mi
Weather by CustomWeather, © 2017

See weather overviewHow to use our weather pages